TimeCDT,TemperatureF,Dew PointF,Humidity,Sea Level PressureIn,VisibilityMPH,Wind Direction,Wind SpeedMPH,Gust SpeedMPH,PrecipitationIn,Events,Conditions,WindDirDegrees,DateUTC
12:15 AM,38.3,32.0,78,30.08,10.0,Calm,Calm,-,N/A,,Overcast,0,2013-10-23 05:15:00
12:35 AM,38.1,32.2,79,30.08,10.0,Calm,Calm,-,N/A,,Overcast,0,2013-10-23 05:35:00
12:55 AM,37.8,32.0,80,30.08,10.0,Calm,Calm,-,N/A,,Overcast,0,2013-10-23 05:55:00
1:15 AM,37.2,32.0,81,30.08,10.0,Calm,Calm,-,N/A,,Scattered Clouds,0,2013-10-23 06:15:00
1:35 AM,34.7,30.9,86,30.08,10.0,Calm,Calm,-,N/A,,Clear,0,2013-10-23 06:35:00
1:55 AM,34.2,31.3,89,30.08,10.0,Calm,Calm,-,N/A,,Clear,0,2013-10-23 06:55:00
2:15 AM,33.8,31.3,90,30.08,10.0,Calm,Calm,-,N/A,,Clear,0,2013-10-23 07:15:00
2:35 AM,33.1,31.1,92,30.09,10.0,Calm,Calm,-,N/A,,Scattered Clouds,0,2013-10-23 07:35:00
2:55 AM,33.8,31.1,90,30.08,10.0,West,4.6,-,N/A,,Scattered Clouds,280,2013-10-23 07:55:00
3:15 AM,33.1,30.9,92,30.08,10.0,Calm,Calm,-,N/A,,Scattered Clouds,0,2013-10-23 08:15:00
3:35 AM,33.1,30.7,91,30.08,10.0,Calm,Calm,-,N/A,,Clear,0,2013-10-23 08:35:00
3:55 AM,32.9,30.7,92,30.08,10.0,Calm,Calm,-,N/A,,Clear,0,2013-10-23 08:55:00
4:15 AM,32.9,30.7,92,30.08,10.0,Calm,Calm,-,N/A,,Clear,0,2013-10-23 09:15:00
4:35 AM,32.9,30.9,92,30.07,10.0,Calm,Calm,-,N/A,,Clear,0,2013-10-23 09:35:00
4:55 AM,32.9,30.9,92,30.06,10.0,Calm,Calm,-,N/A,,Scattered Clouds,0,2013-10-23 09:55:00
5:15 AM,33.8,31.5,91,30.06,10.0,Calm,Calm,-,N/A,,Mostly Cloudy,0,2013-10-23 10:15:00
5:35 AM,33.8,31.6,92,30.08,10.0,Calm,Calm,-,N/A,,Mostly Cloudy,0,2013-10-23 10:35:00
5:55 AM,33.8,32.0,93,30.08,10.0,Calm,Calm,-,N/A,,Mostly Cloudy,0,2013-10-23 10:55:00
6:15 AM,33.8,32.0,93,30.08,10.0,South,5.8,-,N/A,,Overcast,190,2013-10-23 11:15:00
6:35 AM,34.0,32.0,92,30.08,10.0,SSW,4.6,-,N/A,,Overcast,200,2013-10-23 11:35:00
6:55 AM,34.2,32.0,92,30.08,10.0,SSW,4.6,-,N/A,,Overcast,200,2013-10-23 11:55:00
7:15 AM,34.2,32.0,92,30.07,10.0,SSW,3.5,-,N/A,,Overcast,200,2013-10-23 12:15:00
7:35 AM,34.7,32.2,91,30.08,10.0,SSW,3.5,-,N/A,,Overcast,210,2013-10-23 12:35:00
7:55 AM,34.7,32.4,91,30.07,10.0,SSW,3.5,-,N/A,,Overcast,200,2013-10-23 12:55:00
8:15 AM,34.9,32.5,91,30.08,10.0,SSW,3.5,-,N/A,,Overcast,200,2013-10-23 13:15:00
8:35 AM,35.8,33.4,91,30.08,7.0,WSW,3.5,-,N/A,Snow,Light Snow,240,2013-10-23 13:35:00
8:55 AM,36.5,33.8,90,30.08,5.0,Calm,Calm,-,N/A,Snow,Light Snow,0,2013-10-23 13:55:00
9:15 AM,36.1,33.8,91,30.08,3.0,Calm,Calm,-,N/A,Snow,Light Snow,0,2013-10-23 14:15:00
9:35 AM,36.1,34.0,92,30.08,2.5,Calm,Calm,-,N/A,Snow,Light Snow,0,2013-10-23 14:35:00
9:55 AM,36.1,34.2,93,30.07,2.5,Calm,Calm,-,N/A,Snow,Light Snow,0,2013-10-23 14:55:00
10:15 AM,36.5,34.7,93,30.08,4.0,Calm,Calm,-,N/A,Snow,Light Snow,0,2013-10-23 15:15:00
10:35 AM,36.3,34.3,93,30.08,2.5,Calm,Calm,-,N/A,Snow,Light Snow,0,2013-10-23 15:35:00
10:55 AM,36.5,34.7,93,30.08,3.0,Calm,Calm,-,N/A,Snow,Light Snow,0,2013-10-23 15:55:00
11:15 AM,36.7,34.9,93,30.08,4.0,Calm,Calm,-,N/A,,Overcast,0,2013-10-23 16:15:00
11:35 AM,36.5,34.5,93,30.08,2.5,Calm,Calm,-,0.01,,Overcast,0,2013-10-23 16:35:00
11:55 AM,36.7,34.7,93,30.08,4.0,Calm,Calm,-,0.01,Rain,Rain,0,2013-10-23 16:55:00
12:15 PM,37.0,34.9,92,30.08,2.5,Calm,Calm,-,N/A,Rain,Rain,0,2013-10-23 17:15:00
12:35 PM,37.4,35.1,91,30.08,4.0,Calm,Calm,-,0.01,Rain,Rain,0,2013-10-23 17:35:00
12:55 PM,37.6,35.6,93,30.08,3.0,Calm,Calm,-,0.02,Rain,Light Rain,0,2013-10-23 17:55:00
1:15 PM,38.3,36.0,91,30.08,7.0,Calm,Calm,-,N/A,Rain,Light Rain,0,2013-10-23 18:15:00
1:35 PM,39.2,36.7,91,30.08,7.0,Calm,Calm,-,N/A,Rain,Light Rain,0,2013-10-23 18:35:00
1:55 PM,39.6,36.7,89,30.07,7.0,Calm,Calm,-,N/A,,Overcast,0,2013-10-23 18:55:00
2:15 PM,40.1,37.0,89,30.07,10.0,Calm,Calm,-,N/A,,Overcast,0,2013-10-23 19:15:00
2:35 PM,40.5,37.4,89,30.07,10.0,North,5.8,-,N/A,,Overcast,350,2013-10-23 19:35:00
2:55 PM,41.0,37.4,87,30.07,10.0,NNW,6.9,-,N/A,,Overcast,330,2013-10-23 19:55:00
3:15 PM,41.0,37.0,86,30.08,10.0,NNW,8.1,-,N/A,,Drizzle,340,2013-10-23 20:15:00
3:35 PM,40.8,37.2,87,30.08,10.0,NNW,8.1,-,N/A,,Overcast,340,2013-10-23 20:35:00
3:55 PM,41.0,36.9,85,30.09,10.0,NNW,5.8,-,N/A,,Overcast,340,2013-10-23 20:55:00
4:15 PM,41.2,36.5,83,30.09,10.0,NW,5.8,-,N/A,,Overcast,320,2013-10-23 21:15:00
4:35 PM,41.0,35.8,82,30.10,10.0,NNW,10.4,-,N/A,,Overcast,340,2013-10-23 21:35:00
4:55 PM,40.6,35.8,83,30.11,10.0,NNW,5.8,-,N/A,,Overcast,330,2013-10-23 21:55:00
5:15 PM,40.6,34.9,80,30.11,10.0,NNW,4.6,-,N/A,,Overcast,330,2013-10-23 22:15:00
5:35 PM,40.6,34.3,78,30.11,10.0,NW,4.6,-,N/A,,Overcast,310,2013-10-23 22:35:00
5:55 PM,40.5,34.0,78,30.11,10.0,NW,4.6,-,N/A,,Overcast,310,2013-10-23 22:55:00
6:15 PM,40.5,34.2,78,30.12,10.0,NW,3.5,-,N/A,,Overcast,320,2013-10-23 23:15:00
6:35 PM,40.3,34.3,79,30.12,10.0,NW,4.6,-,N/A,,Overcast,320,2013-10-23 23:35:00
6:55 PM,40.1,34.2,79,30.12,10.0,NW,4.6,-,N/A,,Overcast,320,2013-10-23 23:55:00
7:15 PM,40.3,33.8,78,30.13,10.0,NNW,6.9,-,N/A,,Overcast,340,2013-10-24 00:15:00
7:35 PM,40.1,33.4,77,30.14,10.0,NNW,5.8,-,N/A,,Overcast,340,2013-10-24 00:35:00
7:55 PM,40.1,33.6,78,30.14,10.0,NNW,5.8,-,N/A,,Overcast,340,2013-10-24 00:55:00
8:15 PM,39.7,33.8,79,30.14,10.0,NNW,5.8,-,N/A,,Overcast,340,2013-10-24 01:15:00
8:35 PM,39.7,32.9,77,30.15,10.0,NNW,5.8,-,N/A,,Overcast,340,2013-10-24 01:35:00
8:55 PM,39.6,32.0,74,30.16,10.0,North,8.1,-,N/A,,Overcast,350,2013-10-24 01:55:00
9:15 PM,39.4,30.7,71,30.16,10.0,NNW,6.9,-,N/A,,Overcast,340,2013-10-24 02:15:00
9:35 PM,39.2,29.8,69,30.16,10.0,NNW,9.2,-,N/A,,Overcast,340,2013-10-24 02:35:00
9:55 PM,38.1,28.9,70,30.16,10.0,NW,4.6,-,N/A,,Mostly Cloudy,320,2013-10-24 02:55:00
10:15 PM,36.5,28.9,74,30.17,10.0,NW,3.5,-,N/A,,Scattered Clouds,310,2013-10-24 03:15:00
10:35 PM,35.8,28.4,75,30.17,10.0,Calm,Calm,-,N/A,,Clear,0,2013-10-24 03:35:00
10:55 PM,35.2,27.1,72,30.17,10.0,WNW,4.6,-,N/A,,Scattered Clouds,290,2013-10-24 03:55:00
11:15 PM,34.3,26.4,73,30.17,10.0,WNW,4.6,-,N/A,,Scattered Clouds,300,2013-10-24 04:15:00
11:35 PM,33.8,25.7,72,30.17,10.0,WNW,4.6,-,N/A,,Scattered Clouds,290,2013-10-24 04:35:00
11:55 PM,33.6,26.2,74,30.18,10.0,WNW,4.6,-,N/A,,Scattered Clouds,300,2013-10-24 04:55:00